AirNav   Everest Fuels
 
 1531 users online  

Y94 East Jordan City Airport
East Jordan, Michigan, USA

GOING TO EAST JORDAN?


FAA INFORMATION EFFECTIVE 25 APRIL 2019

Location

FAA Identifier: Y94
Lat/Long: 45-07-48.6621N / 085-06-24.5340W
45-07.811035N / 085-06.408900W
45.1301839 / -85.1068150
(estimated)
Elevation: 642 ft. / 195.7 m (surveyed)
Variation: 05W (1985)
From city: 2 miles SE of EAST JORDAN, MI
Time zone: UTC -4 (UTC -5 during Standard Time)
Zip code: 49727

Airport Operations

Airport use: Open to the public
Activation date: 08/1945
Control tower: no
ARTCC: MINNEAPOLIS CENTER
FSS: LANSING FLIGHT SERVICE STATION
NOTAMs facility: LAN (NOTAM-D service available)
Attendance: UNATNDD
Wind indicator: lighted
Segmented circle: yes
Lights: ACTVT MIRL RY 09/27, VASI RY 27 -122.8.

Airport Communications

CTAF: 122.9
WX AWOS-3 at ACB (9 nm SW): 119.275 (231-533-8941)
WX AWOS-3 at CVX (13 nm NW): 120.0 (231-237-9703)
WX ASOS at GLR (18 nm E): 118.375 (989-732-1571)
WX AWOS-3 at MGN (20 nm NE): 119.925 (231-347-5231)

Nearby radio navigation aids

VOR radial/distance  VOR name  Freq  Var
GLRr298/18.5GAYLORD VOR/DME109.2006W
CGGr335/(31.4)GRAYLING VOR109.8006W
TVCr036/33.5TRAVERSE CITY VOR/DME114.6002W
PLNr218/35.4PELLSTON VORTAC111.8006W

 
NDB name  Hdg/Dist  Freq  Var  ID
CHARLEVOIX151/12.439205WCVX -.-. ...- -..-
BANGU305/14.437506WGL --. .-..
GRAYLING339/25.735906WGYG --. -.-- --.

Airport Services

Airframe service: NONE

Runway Information

Runway 9/27

Dimensions: 3250 x 50 ft. / 991 x 15 m
Surface: asphalt, in fair condition
Runway edge lights: medium intensity
RUNWAY 9  RUNWAY 27
Latitude: 45-07.861667N45-07.849333N
Longitude: 085-06.748333W085-05.992833W
Elevation: 631.9 ft.653.0 ft.
Traffic pattern: leftleft
Runway heading: 096 magnetic, 091 true276 magnetic, 271 true
Displaced threshold: no125 ft.
Markings: basic, in good conditionbasic, in good condition
Visual slope indicator: 2-box VASI on left (4.00 degrees glide path)
Obstructions: 10 ft. road, 350 ft. from runway, 15:1 slope to clear
APCH RATIO 35:1 TO THLD.
15 ft. road, 245 ft. from runway, 3:1 slope to clear
+4 FT POST 175 FT DSTC 15 FT R.

Runway 18/36

Dimensions: 1800 x 120 ft. / 549 x 37 m
Surface: turf, in poor condition
RY 18/36 SFC ROUGH.
Runway edge markings: 18/36 MKD WITH 3 FT YELLOW CONES.
Operational restrictions: RY 18/36 CLSD NOV-APR & WHEN SNOW COVERED. NO SNOW REMOVAL.
RUNWAY 18  RUNWAY 36
Latitude: 45-07.878833N45-07.582667N
Longitude: 085-06.479167W085-06.477000W
Elevation: 644.0 ft.629.0 ft.
Traffic pattern: leftleft
Runway heading: 185 magnetic, 180 true005 magnetic, 360 true
Obstructions: 49 ft. trees, 539 ft. from runway, 175 ft. left of centerline, 11:1 slope to clear
APCH RATIO 20:1 BASED ON STRAIGHT OUT OVR 54 FT TREES.
60 ft. trees, 125 ft. left of centerline
APCH RATIO 20:1 BASED ON STRAIGHT OUT OVR 50 FT TREES, 1250 FT DSTC, 0 FT B.

Airport Ownership and Management from official FAA records

Ownership: Publicly-owned
Owner: CITY OF EAST JORDAN
201 MAIN ST, P O BOX 499
EAST JORDAN, MI 49727-0499
Phone 231-536-3381
Manager: TOM CANNON
201 MAIN ST
EAST JORDAN, MI 49727
Phone 231-536-3381
231-357-0646 AMGR CELL.

Airport Operational Statistics

Aircraft based on the field: 3
Single engine airplanes: 3
    
Aircraft operations: avg 29/week *
67% transient general aviation
33% local general aviation
* for 12-month period ending 31 December 2017

Additional Remarks

BIRDS & DEER ON & INVOF ARPT.
1670 FT MSL TWR 3 MI NE.

Instrument Procedures

There are no published instrument procedures at Y94.

Some nearby airports with instrument procedures:

N98 - Boyne City Municipal Airport (7 nm NE)
KBFA - Boyne Mountain Airport (8 nm E)
KACB - Antrim County Airport (9 nm SW)
KCVX - Charlevoix Municipal Airport (13 nm NW)
KGLR - Gaylord Regional Airport (18 nm E)
KMGN - Harbor Springs Airport (20 nm NE)
 
Loc | Ops | Rwys | IFR | FBO | Links
Com | Nav | Svcs | Stats | Notes
Area around Y94 (East Jordan City Airport)
 
Road maps at: MapQuest Bing Google
 
Aerial photo
No photo
 
Sectional chart

 
Airport distance calculator
Flying to East Jordan City Airport? Find the distance to fly.

From to Y94

Sunrise and sunset
Times for 25-Apr-2019
 Local
(UTC-4)
 Zulu
(UTC)
Morning civil twilight06:0810:08
Sunrise06:4010:40
Sunset20:3700:37
Evening civil twilight21:0901:09

Current date and time
Zulu (UTC)  25-Apr-2019 17:05:04
Local (UTC-4)  25-Apr-2019 13:05:04
 
METAR
KACB 
10nm SW 
251655Z AUTO 27005KT 10SM CLR 19/01 A2977 RMK AO2 T01880012
KCVX 
12nm NW 
251655Z AUTO 28011KT 10SM SCT120 19/06 A2980 RMK AO2 T01850055
KGLR 
19nm E 
251653Z AUTO 24010G14KT 10SM CLR 18/02 A2976 RMK AO2 SLP080 T01780022
KMGN 
20nm NE 
251655Z AUTO 23007KT 10SM CLR 17/04 A2976 RMK AO2 T01760044
TAF
KPLN 
29nm NE 
251623Z 2516/2612 24008G16KT P6SM FEW120 FM252100 27007KT P6SM VCSH BKN070 FM252300 28006KT P6SM VCSH OVC035 FM260400 00000KT P6SM VCSH OVC045 FM260600 00000KT P6SM BKN060
KTVC 
31nm SW 
251622Z 2516/2612 22010G15KT P6SM BKN070 FM252100 24007KT P6SM VCSH BKN070 FM260000 32007KT P6SM VCSH OVC045 FM260200 35005KT P6SM VCSH OVC030 FM260500 VRB03KT P6SM OVC025 FM260700 00000KT P6SM BKN040 FM261000 VRB03KT P6SM SCT060
NOTAMs
Click for the latest NOTAMs
NOTAMs are issued by the DoD/FAA and will open in a separate window not controlled by AirNav.

 

 
 

Would you like to see your business listed on this page?

 If your business provides an interesting product or service to pilots, flight crews, aircraft, or users of the East Jordan City Airport, you should consider listing it here.  To start the listing process, click on the button below
 
Add a business
 

Other Pages about East Jordan City Airport

Page from the Michigan Airport Directory (PDF)
 
Update a link
 
Copyright © AirNav, LLC. All rights reserved. Privacy Policy  Contact